Content
SEND FEEDBACK

Daily
Averages
Monthly
Summary
Turkmenistan

ASHGABAT, TURKMENISTAN


Home > Asia > Turkmenistan
Elevation: 775 feet     Latitude: 37 58N     Longitude: 058 20E

WEATHER
 
SELECT A DAY
Number of Records: 177,560;   Date Range: 3/15/97 - 9/18/14
 
SHARE

PRINT THIS DATA

[ ← Previous Day ]
WEATHER ALMANAC - FEBRUARY 3, 2014
[ Next Day → ]
[ °C ]   °F
Weather ElementAverageHighLow
Temperature7.5 °F15 °F (5:00 pm) (11:00 pm)
Dewpoint1.9 °F7 °F (2:00 pm)-1 °F (2:00 am)
Humidity75.5 %92 % (3:00 am)60 % (5:00 pm)
Barometer30.71 in30.85 in (2:00 am)30.63 in (4:00 pm)
Wind Speed5.9 mph11.2 mph (5:00 pm)
Weather ElementAverage
Visibility6.1 mi
Wind DirectionENE (82.3 °)

Weather ElementTotal
Precipitation---
Heating Degree Days57.5 (Base 65)
Averaged from 31 records on February 3, 2014
WEATHER CONDITIONS BREAKOUT
WIND DIRECTION BREAKOUT
WEATHER BY HOUR - FEBRUARY 3, 2014
[ °C ]   °F
Local TimeTemperatureDewpointHumidityBarometerVisibilityWind DirectionWind SpeedGust SpeedPrecipitationEventsConditions
1:00 AM3.2 °F-0.4 °F85 %30.74 in6.2 miVariable2.2 mphMostly Cloudy
2:00 AM3.0 °F-1.0 °F74 %30.85 in6.0 miCalmPartly Cloudy
2:00 AM3.2 °F-0.4 °F85 %30.74 in6.2 miCalmScattered Clouds
3:00 AM1.4 °F-0.4 °F92 %30.71 in6.2 miCalmPartly Cloudy
4:00 AM3.2 °F-0.4 °F85 %30.71 in6.2 miVariable2.2 mphClear
5:00 AM2.0 °F-1.0 °F81 %30.84 in6.0 miEast (80°)4.5 mph
5:00 AM3.2 °F-0.4 °F85 %30.71 in6.2 miENE (70°)4.5 mphClear
6:00 AM3.2 °F-0.4 °F85 %30.71 in6.2 miSE (130°)4.5 mphClear
7:00 AM3.2 °F-0.4 °F85 %30.71 in6.2 miESE (110°)4.5 mphClear
8:00 AM2.0 °F-1.0 °F78 %30.84 in6.0 miESE (110°)4.5 mphScattered Clouds
8:00 AM3.2 °F1.4 °F92 %30.71 in6.2 miESE (110°)4.5 mphPartly Cloudy
9:00 AM6.8 °F3.2 °F85 %30.71 in6.2 miESE (110°)4.5 mphPartly Cloudy
10:00 AM8.6 °F3.2 °F79 %30.71 in6.2 miEast (100°)6.7 mphClear
11:00 AM10.0 °F4.0 °F65 %30.83 in6.0 miEast (80°)8.9 mph
11:00 AM8.6 °F3.2 °F79 %30.71 in6.2 miEast (80°)8.9 mphClear
12:00 PM12.2 °F5.0 °F73 %30.71 in6.2 miEast (80°)8.9 mphClear
1:00 PM12.2 °F1.4 °F62 %30.69 in6.2 miEast (90°)6.7 mphClear
2:00 PM13.0 °F7.0 °F66 %30.76 in6.0 miEast (80°)6.7 mphScattered Clouds
2:00 PM14.0 °F3.2 °F62 %30.66 in6.2 miEast (80°)6.7 mphPartly Cloudy
3:00 PM14.0 °F5.0 °F67 %30.66 in6.2 miESE (110°)6.7 mphPartly Cloudy
4:00 PM14.0 °F5.0 °F67 %30.63 in6.2 miEast (100°)8.9 mphScattered Clouds
5:00 PM15.0 °F7.0 °F60 %30.72 in6.0 miESE (120°)11.2 mphScattered Clouds
5:00 PM14.0 °F5.0 °F67 %30.63 in6.2 miESE (120°)11.2 mphScattered Clouds
6:00 PM14.0 °F5.0 °F67 %30.63 in6.2 miEast (80°)8.9 mphScattered Clouds
7:00 PM10.4 °F-0.4 °F62 %30.66 in6.2 miEast (80°)8.9 mphScattered Clouds
8:00 PM9.0 °F2.0 °F60 %30.77 in6.0 miEast (90°)6.7 mphClear
8:00 PM8.6 °F1.4 °F73 %30.66 in6.2 miEast (90°)6.7 mphScattered Clouds
9:00 PM6.8 °F1.4 °F79 %30.66 in6.2 miEast (90°)6.7 mphPartly Cloudy
10:00 PM5.0 °F1.4 °F85 %30.66 in6.2 miESE (110°)6.7 mphClear
11:00 PM0.0 °F0.0 °F30.76 in6.0 miEast (80°)4.5 mph
11:00 PM6.8 °F1.4 °F79 %30.66 in6.2 miEast (90°)6.7 mphClear
Hourly data recorded from UTAA, located miles away from Ashgabat, Turkmenistan







STORIES FROM OUR PARTNERS